Location: Bilsen
(53.7722°N, 9.8765°E)
Time: 01:30:23
(UTC+00:00)

Cosmos 1500 Rocket - Pass Details

Date: 18 February 2020
Orbit: 602 x 632 km, 82.5° (Epoch: 05 April)

Event Time Altitude Azimuth Distance (km) Brightness Sun altitude
Rises 05:10:28 0° 341° (NNW) 2,935 6.8 -13.0°
Reaches altitude 10° 05:12:57 10° 330° (NNW) 2,019 5.9 -12.7°
Maximum altitude 05:16:45 28° 272° (W) 1,187 4.4 -12.1°
Drops below altitude 10° 05:20:30 10° 213° (SSW) 1,990 5.9 -11.6°
Sets 05:22:56 0° 202° (SSW) 2,885 6.8 -11.2°
